KD5NDU-15 Weather Reports


Display with metric or nautical units.
time (UTC)temp
F
wind
direction
speed
MPH
gust
MPH
rain 1hr
in
rain 24hr
in
rain mn
in
humidity
%
barometer
mb
20260508175730 70 300 2.0 4.0 0.00 0.00 0.00 65 1012.4
20260508175230 71 222 3.0 8.0 0.00 0.00 0.00 62 1012.3
20260508174730 71 194 3.0 7.0 0.00 0.00 0.00 61 1012.2
20260508174231 71 144 2.0 5.0 0.00 0.00 0.00 63 1012.5
20260508173734 71 165 2.0 7.0 0.00 0.00 0.00 62 1012.5
20260508173230 71 146 2.0 5.0 0.00 0.00 0.00 62 1012.7
20260508172743 70 116 2.0 4.0 0.00 0.00 0.00 58 1012.9
20260508172230 70 240 3.0 5.0 0.00 0.00 0.00 61 1013.1
20260508171730 70 205 3.0 6.0 0.00 0.00 0.00 58 1013.1
20260508171230 70 235 3.0 6.0 0.00 0.00 0.00 64 1013.1
20260508170756 70 257 3.0 7.0 0.00 0.00 0.00 63 1013.2
20260508170321 70 183 3.0 8.0 0.00 0.00 0.00 62 1013.0
20260508165736 69 132 2.0 8.0 0.00 0.00 0.00 65 1013.1
20260508165230 69 158 2.0 5.0 0.00 0.00 0.00 64 1013.3
20260508164730 69 48 3.0 5.0 0.00 0.00 0.00 63 1013.2
20260508164230 69 171 3.0 8.0 0.00 0.00 0.00 61 1013.1
20260508163730 70 195 2.0 9.0 0.00 0.00 0.00 61 1013.1
20260508163230 69 103 3.0 5.0 0.00 0.00 0.00 62 1013.1
20260508162749 69 184 3.0 8.0 0.00 0.00 0.00 61 1013.1
20260508162232 69 130 3.0 8.0 0.00 0.00 0.00 64 1013.2
20260508161730 69 160 3.0 8.0 0.00 0.00 0.00 62 1013.4
20260508161249 69 128 3.0 8.0 0.00 0.00 0.00 62 1013.5
20260508160730 69 127 3.0 8.0 0.00 0.00 0.00 62 1013.5
20260508160230 69 180 2.0 7.0 0.00 0.00 0.00 63 1013.5
20260508155743 68 148 2.0 6.0 0.00 0.00 0.00 66 1013.7
20260508155232 68 113 3.0 6.0 0.00 0.00 0.00 65 1013.7
20260508154732 68 141 4.0 7.0 0.00 0.00 0.00 65 1014.0
20260508154244 68 210 4.0 9.0 0.00 0.00 0.00 65 1014.1
20260508153730 68 185 3.0 6.0 0.00 0.00 0.00 67 1014.2
20260508153232 68 149 2.0 6.0 0.00 0.00 0.00 66 1014.0
20260508152756 68 353 2.0 4.0 0.00 0.00 0.00 66 1014.1
20260508152230 68 161 2.0 6.0 0.00 0.00 0.00 65 1014.0
20260508151730 68 159 2.0 6.0 0.00 0.00 0.00 67 1014.1
20260508151234 68 187 3.0 7.0 0.00 0.00 0.00 67 1014.4
20260508150732 68 189 3.0 7.0 0.00 0.00 0.00 67 1014.5
20260508150230 68 142 3.0 7.0 0.00 0.00 0.00 69 1014.5
20260508145732 68 225 2.0 8.0 0.00 0.00 0.00 66 1014.8
20260508145326 67 148 3.0 3.0 0.00 0.00 0.00 69 1014.5
20260508144756 66 117 3.0 7.0 0.00 0.00 0.00 69 1014.6
20260508144239 66 176 2.0 4.0 0.00 0.00 0.00 70 1014.6
20260508143730 66 128 3.0 6.0 0.00 0.00 0.00 71 1014.7
20260508143302 65 164 3.0 7.0 0.00 0.00 0.00 71 1014.7
20260508142730 65 158 3.0 8.0 0.00 0.00 0.00 71 1014.7
20260508142230 64 195 3.0 9.0 0.00 0.00 0.00 72 1014.8
20260508141732 64 153 4.0 8.0 0.00 0.00 0.00 72 1014.8
20260508141234 64 185 4.0 8.0 0.00 0.00 0.00 72 1014.8
20260508140730 64 179 2.0 6.0 0.00 0.00 0.00 73 1014.6
20260508140232 63 107 2.0 5.0 0.00 0.00 0.00 77 1014.6
20260508135742 63 85 2.0 6.0 0.00 0.00 0.00 75 1014.6
20260508135230 63 161 2.0 6.0 0.00 0.00 0.00 77 1014.7
20260508134730 62 198 3.0 6.0 0.00 0.00 0.00 77 1014.8
20260508134230 62 147 3.0 6.0 0.00 0.00 0.00 75 1014.9
20260508133840 61 210 2.0 7.0 0.00 0.00 0.00 76 1014.9
20260508133733 61 210 2.0 7.0 0.00 0.00 0.00 76 1014.9
20260508133232 61 178 3.0 6.0 0.00 0.00 0.00 76 1014.8
20260508132732 62 194 2.0 7.0 0.00 0.00 0.00 76 1014.8
20260508132230 61 148 1.0 2.0 0.00 0.00 0.00 79 1014.8
20260508131755 60 146 2.0 4.0 0.00 0.00 0.00 79 1014.8
20260508131400 60 185 1.0 5.0 0.00 0.00 0.00 78 1014.7
20260508131230 60 185 1.0 5.0 0.00 0.00 0.00 78 1014.7
20260508130643 52 1 0.0 0.0 0.00 0.00 0.00 93 1013.9
20260508125730 58 181 1.0 3.0 0.00 0.00 0.00 81 1014.7
20260508125230 58 119 1.0 4.0 0.00 0.00 0.00 82 1014.6
20260508124312 56 139 1.0 3.0 0.00 0.00 0.00 86 1014.8
20260508005731 60 1 0.0 0.0 0.00 0.00 0.00 85 1013.1
20260508005231 61 1 255.0 0.0 0.00 0.00 0.00 85 1013.0
20260508004731 0 767 255.0 255.0 0.00 0.00 0.00
20260507235039 66 1 0.0 0.0 0.00 0.00 0.00 76 1013.0
20260507223142 69 1 0.0 2.0 0.00 0.00 0.00 60 1012.8
20260507222541 69 12 0.0 2.0 0.00 0.00 0.00 62 1012.8
20260507222039 69 17 1.0 2.0 0.00 0.00 0.00 61 1012.8
20260507221543 69 16 0.0 2.0 0.00 0.00 0.00 61 1012.8
20260507221041 69 359 0.0 2.0 0.00 0.00 0.00 64 1012.9
20260507220547 70 11 0.0 2.0 0.00 0.00 0.00 60 1012.7
20260507220039 70 27 0.0 0.0 0.00 0.00 0.00 63 1012.8
20260507215539 70 28 1.0 2.0 0.00 0.00 0.00 62 1012.7
20260507215039 70 32 0.0 3.0 0.00 0.00 0.00 60 1012.7
20260507214539 70 338 0.0 0.0 0.00 0.00 0.00 63 1012.5
20260507214039 70 338 0.0 2.0 0.00 0.00 0.00 61 1012.7
20260507213545 70 337 0.0 2.0 0.00 0.00 0.00 60 1012.4
20260507213413 71 349 1.0 2.0 0.00 0.00 0.00 62 1012.6
20260507211539 71 19 1.0 3.0 0.00 0.00 0.00 62 1012.4
20260507211043 71 52 1.0 2.0 0.00 0.00 0.00 61 1012.3
20260507210059 70 25 1.0 2.0 0.00 0.00 0.00 65 1012.4
20260507205555 70 1 1.0 4.0 0.00 0.00 0.00 61 1012.6
20260507205039 71 1 0.0 2.0 0.00 0.00 0.00 60 1012.6
20260507204039 71 1 1.0 3.0 0.00 0.00 0.00 62 1012.6
20260507203733 71 14 1.0 2.0 0.00 0.00 0.00 66 1012.7
20260507203039 71 355 1.0 3.0 0.00 0.00 0.00 61 1012.7
20260507202539 71 332 1.0 3.0 0.00 0.00 0.00 62 1012.7
20260507202324 71 132 1.0 3.0 0.00 0.00 0.00 60 1012.6
20260507201544 72 3 1.0 3.0 0.00 0.00 0.00 62 1012.8
20260507201040 72 19 2.0 3.0 0.00 0.00 0.00 59 1012.9
20260507200607 73 3 2.0 5.0 0.00 0.00 0.00 56 1012.9
20260507200049 74 300 1.0 3.0 0.00 0.00 0.00 58 1012.9
20260507195540 74 29 1.0 3.0 0.00 0.00 0.00 62 1012.8
20260507195107 73 359 1.0 2.0 0.00 0.00 0.00 63 1012.9
20260507194555 73 351 1.0 3.0 0.00 0.00 0.00 61 1013.0
20260507194040 72 359 1.0 3.0 0.00 0.00 0.00 61 1013.3
20260507193042 72 357 2.0 5.0 0.00 0.00 0.00 60 1013.6
20260507192720 72 321 2.0 4.0 0.00 0.00 0.00 59 1013.6
20260507192039 72 2 2.0 3.0 0.00 0.00 0.00 63 1013.6
20260507191540 73 356 2.0 5.0 0.00 0.00 0.00 67 1013.6
20260507191050 73 158 1.0 4.0 0.00 0.00 0.00 66 1013.6
20260507190547 73 354 1.0 4.0 0.00 0.00 0.00 61 1013.5
20260507190040 73 234 1.0 3.0 0.00 0.00 0.00 66 1013.4
20260507185547 73 2 1.0 2.0 0.00 0.00 0.00 62 1013.4
20260507185040 72 340 1.0 2.0 0.00 0.00 0.00 63 1013.6
20260507184554 72 160 1.0 3.0 0.00 0.00 0.00 61 1013.6
20260507184044 72 79 1.0 4.0 0.00 0.00 0.00 65 1013.6
20260507183544 72 46 1.0 2.0 0.00 0.00 0.00 63 1013.5
20260507183042 72 0 1.0 4.0 0.00 0.00 0.00 62 1013.6
20260507182555 71 32 1.0 4.0 0.00 0.00 0.00 63 1013.8
20260507182047 71 354 1.0 5.0 0.00 0.00 0.00 65 1013.6
20260507180726 71 359 1.0 3.0 0.00 0.00 0.00 66 1013.6
20260507180040 71 24 1.0 3.0 0.00 0.00 0.00 63 1013.7